Regional Weather Roundup
Issued by NWS

Home | Current Version | Previous Version | Graphics & Text | Print | Product List | Glossary On
Versions: 1 2 3 4 5 6 7 8 9 10 11 12 13 14 15 16 17 18 19 20 21 22 23 24 25 26 27 28 29 30 31 32 33 34 35 36 37 38 39 40 41 42 43 44 45 46 47 48 49 50
000
ASUS43 KDMX 050207
RWRIA

WEATHER ROUNDUP FOR IOWA
NATIONAL WEATHER SERVICE DES MOINES IA
800 PM CST WED MAR 04 2015

NOTE: "FAIR" INDICATES FEW OR NO CLOUDS BELOW 12,000 FEET WITH NO
SIGNIFICANT WEATHER AND/OR OBSTRUCTIONS TO VISIBILITY.

* - THESE STATIONS ARE NOT NWS STATIONS...THUS NOT UNDER NWS
QUALITY CONTROL.  THEY ALSO DO NOT REPORT WEATHER SUCH
AS PRECIPITATION OR FOG.

IAZ001>003-012>014-020>022-031>034-043>046-050300-
   NORTHWEST IOWA

CITY           SKY/WX    TMP DP  RH WIND       PRES   REMARKS
CARROLL *      CLEAR     10  -2  56 NW15      30.40R WCI  -6
CHEROKEE *     CLEAR      5  -6  61 N7        30.43R WCI  -7
DENISON *      CLEAR      9  -4  56 N12       30.39R WCI  -6
LE MARS *      CLEAR      5  -4  66 N8        30.44R WCI  -8
ORANGE CITY *  CLEAR      7  -6  56 N5        30.40R WCI  -2
SHELDON *      CLEAR      1  -8  66 N7        30.39R WCI -11
SIOUX CITY     CLEAR     10  -3  55 N9        30.45R WCI  -3
SPENCER          N/A      4  -6  63 NW10      30.39R WCI -11
STORM LAKE *   CLEAR      5  -6  61 NW15      30.40R WCI -13
$$

IAZ055>058-069>071-079>083-090>094-050300-
   SOUTHWEST IOWA

CITY           SKY/WX    TMP DP  RH WIND       PRES   REMARKS
ATLANTIC *     CLEAR     14   0  52 N10       30.39R WCI   1
AUDUBON *      CLEAR     12  -2  52 NW8       30.39R WCI   1
CLARINDA *     CLEAR     19   1  45 N13       30.42R WCI   7
COUNCIL BLFS * CLEAR     16   0  48 N12       30.38R WCI   3
CRESTON *      CLEAR     16  -2  45 N13       30.37R WCI   2
HARLAN  *      CLEAR     12  -2  52 N10G17    30.43R WCI  -1
LAMONI         MOCLDY    19   2  47 N13       30.35R WCI   6
RED OAK *      CLEAR     16   3  57 N10       30.41R WCI   3
SHENANDOAH *   CLEAR     18   1  49 N7        30.42R WCI   8
$$

IAZ047>049-059>061-072>074-084-050300-
   CENTRAL IOWA

CITY           SKY/WX    TMP DP  RH WIND       PRES   REMARKS
AMES           CLOUDY    15   7  70 NW13      30.38S WCI   1
ANKENY *       PTCLDY    16   9  73 NW17      30.38S WCI   0
CHARITON *     MOCLDY    19   1  45 NW15G25   30.36R WCI   5
DES MOINES     PTCLDY    17   3  54 NW15      30.37R WCI   2
GRINNELL*      MOCLDY    12   5  73 N6        30.35S WCI   3
KNOXVILLE *    PTCLDY    19   3  49 N13G24    30.34F WCI   7
MARSHALLTOWN   PTCLDY     9   3  77 N3        30.36R
PELLA *        PTCLDY    18  14  86 N12       30.37R WCI   5
PERRY *          N/A     14   5  67 NW12      30.39R WCI   0
$$

IAZ004>006-015-016-023>025-035-036-050300-
   NORTH CENTRAL IOWA

CITY           SKY/WX    TMP DP  RH WIND       PRES   REMARKS
ALGONA *       CLOUDY     7   7 100 N12       30.39R WCI  -9
CLARION *      MOCLDY     9   1  72 N14       30.36F WCI  -8
ESTHERVILLE    PTCLDY     3  -5  69 NW10      30.38R WCI -12
FORT DODGE *   MOCLDY    10   3  72 NW8       30.38R WCI  -1
MASON CITY     CLEAR      4  -5  66 NW15      30.38R WCI -14
FOREST CITY *  CLEAR      5  -4  66 NW9       30.37R WCI  -9
IOWA FALLS *     N/A      9   1  72 NW15      30.36R WCI  -8
$$

IAZ007>011-017>019-026>030-037>042-050>054-066-050300-
   NORTHEAST IOWA

CITY           SKY/WX    TMP DP  RH WIND       PRES   REMARKS
CEDAR RAPIDS   CLEAR     10   2  69 NW7       30.35R WCI  -1
CHARLES CITY * PTCLDY     7   0  72 NW14      30.35R WCI -10
CLINTON *      PTCLDY     9   0  66 W7        30.37R WCI  -3
DECORAH *      CLEAR      7  -2  66 NW9G17    30.30R WCI  -7
DUBUQUE        PTCLDY     6  -4  63 N8        30.30R WCI  -7
MONTICELLO *   CLEAR      7  -4  61 W5        30.36R WCI  -2
OELWEIN *      CLEAR      3  -2  78 NW8       30.35R WCI -10
WATERLOO       PTCLDY     6  -1  73 NW9       30.36R WCI  -8
$$

IAZ064-065-067-068-078-050300-
   EAST CENTRAL IOWA

CITY           SKY/WX    TMP DP  RH WIND       PRES   REMARKS
DAVENPORT      PTCLDY    10   0  63 NW7       30.37R WCI  -1
IOWA CITY      CLOUDY    15   3  59 N7        30.39R WCI   5
MT. PLEASANT * CLOUDY    16   7  67 E3        30.36R
MUSCATINE *    CLOUDY    16   7  67 N7        30.39R WCI   6
QUAD CITIES    PTCLDY    15   0  51 NW9       30.37R WCI   3
$$

IAZ062-063-075>077-085>089-095>099-050300-
   SOUTHEAST IOWA

CITY           SKY/WX    TMP DP  RH WIND       PRES   REMARKS
BURLINGTON     PTCLDY    15   5  64 SE3       30.36R
FAIRFIELD *    CLOUDY    19   9  63 NE6       30.34R WCI  11
FORT MADISON * PTCLDY    18   5  57 SE3       30.37R
KEOKUK *       CLEAR     19   7  58 CALM      30.35S
OSKALOOSA *      N/A     19  14  79 N12       30.34S WCI   7
CENTERVILLE *  PTCLDY    21   5  49 NW18      30.35S WCI   6
OTTUMWA        MOCLDY    21   5  50 NW16      30.33R WCI   7
WASHINGTON *   CLOUDY    18  10  73 N8        30.36R WCI   7
$$

ABBREVIATIONS USED IN REMARKS
   TC - TEMPERATURES IN CELSIUS
  WCI - WIND CHILL INDEX
   HX - HEAT INDEX
  VSB - VISIBILITY
$$




USA.gov is the U.S. government's official web portal to all federal, state and local government web resources and services.